TPC538 KSAN-KTUS

Flight info

Callsign TPC538
Flight time 0h 50m
Altitude 41000
Route ZZOOO4 GBN DINGO6
Aircraft C750/M-SBDE3FGHRWXY/S

Departure

Time 2026-04-24 00:31
Airport San Diego International Airport (KSAN)

Arrival

Time 2026-04-24 01:21
Airport Tucson International Airport (KTUS)
Time Latitude Longitude Altitude Speed Heading
2026-04-24 00:09 32.73354 -117.17871 22 ft 0 kts 94°
2026-04-24 00:26 32.73354 -117.17870 22 ft 1 kts 90°
2026-04-24 00:26 32.73358 -117.17869 23 ft 0 kts 25°
2026-04-24 00:26 32.73363 -117.17875 25 ft 3 kts 313°
2026-04-24 00:27 32.73368 -117.17899 25 ft 2 kts 275°
2026-04-24 00:27 32.73369 -117.17913 23 ft 1 kts 275°
2026-04-24 00:27 32.73369 -117.17926 23 ft 4 kts 262°
2026-04-24 00:27 32.73314 -117.17966 22 ft 17 kts 196°
2026-04-24 00:28 32.73221 -117.17930 22 ft 15 kts 110°
2026-04-24 00:28 32.73189 -117.17806 22 ft 16 kts 106°
2026-04-24 00:28 32.73173 -117.17740 24 ft 0 kts 104°
2026-04-24 00:28 32.73172 -117.17732 23 ft 2 kts 104°
2026-04-24 00:29 32.73167 -117.17708 23 ft 6 kts 104°
2026-04-24 00:29 32.73152 -117.17651 23 ft 3 kts 110°
2026-04-24 00:29 32.73140 -117.17608 24 ft 9 kts 105°
2026-04-24 00:29 32.73101 -117.17557 24 ft 6 kts 148°
2026-04-24 00:30 32.73054 -117.17535 22 ft 9 kts 200°
2026-04-24 00:30 32.73032 -117.17626 22 ft 17 kts 287°
2026-04-24 00:30 32.73131 -117.18046 20 ft 101 kts 286°
2026-04-24 00:30 32.73383 -117.18999 333 ft 115 kts 289°
2026-04-24 00:31 32.73726 -117.19867 1109 ft 120 kts 296°
2026-04-24 00:31 32.74022 -117.20865 1694 ft 138 kts 280°
2026-04-24 00:31 32.74190 -117.22028 2354 ft 148 kts 280°
2026-04-24 00:31 32.74409 -117.23257 3070 ft 158 kts 283°
2026-04-24 00:32 32.74708 -117.24578 3752 ft 176 kts 285°
2026-04-24 00:32 32.75060 -117.26033 4595 ft 190 kts 285°
2026-04-24 00:32 32.75435 -117.27577 5459 ft 198 kts 285°
2026-04-24 00:32 32.75827 -117.29188 6376 ft 205 kts 286°
2026-04-24 00:33 32.76239 -117.30892 6881 ft 230 kts 286°
2026-04-24 00:33 32.76510 -117.32858 7377 ft 253 kts 265°
2026-04-24 00:33 32.75925 -117.34794 8532 ft 250 kts 239°
2026-04-24 00:33 32.74619 -117.36166 9603 ft 258 kts 210°
2026-04-24 00:34 32.72840 -117.36575 10493 ft 271 kts 179°
2026-04-24 00:34 32.71060 -117.35758 11310 ft 285 kts 146°
2026-04-24 00:34 32.69679 -117.34047 12191 ft 290 kts 133°
2026-04-24 00:34 32.68408 -117.32154 13008 ft 296 kts 131°
2026-04-24 00:35 32.67110 -117.30228 13834 ft 301 kts 133°
2026-04-24 00:35 32.65754 -117.28306 14558 ft 306 kts 134°
2026-04-24 00:35 32.64374 -117.26356 15299 ft 311 kts 133°
2026-04-24 00:35 32.63186 -117.24142 15676 ft 335 kts 114°
2026-04-24 00:36 32.62709 -117.21298 15667 ft 367 kts 96°
2026-04-24 00:36 32.62769 -117.18168 15687 ft 393 kts 84°
2026-04-24 00:36 32.63150 -117.14868 15858 ft 411 kts 80°
2026-04-24 00:36 32.63554 -117.11496 16555 ft 414 kts 82°
2026-04-24 00:37 32.63825 -117.08077 17197 ft 419 kts 85°
2026-04-24 00:37 32.64073 -117.04613 17844 ft 424 kts 84°
2026-04-24 00:37 32.64402 -117.01108 18494 ft 429 kts 82°
2026-04-24 00:37 32.64758 -116.97572 19097 ft 434 kts 83°
2026-04-24 00:38 32.65072 -116.93993 19706 ft 439 kts 84°
2026-04-24 00:38 32.65369 -116.90367 20334 ft 444 kts 84°
2026-04-24 00:38 32.65693 -116.86696 20967 ft 449 kts 83°
2026-04-24 00:38 32.66036 -116.82987 21550 ft 455 kts 83°
2026-04-24 00:39 32.66368 -116.79234 22180 ft 460 kts 83°
2026-04-24 00:39 32.66691 -116.75441 22811 ft 465 kts 83°
2026-04-24 00:39 32.67023 -116.71603 23435 ft 470 kts 83°
2026-04-24 00:39 32.67365 -116.67726 23963 ft 475 kts 83°
2026-04-24 00:40 32.67707 -116.63809 24477 ft 479 kts 83°
2026-04-24 00:40 32.68045 -116.59858 24966 ft 484 kts 84°
2026-04-24 00:40 32.68386 -116.55867 25480 ft 488 kts 84°
2026-04-24 00:40 32.68733 -116.51837 25994 ft 492 kts 84°
2026-04-24 00:41 32.69080 -116.47780 26501 ft 497 kts 84°
2026-04-24 00:41 32.69428 -116.43685 27007 ft 501 kts 84°
2026-04-24 00:41 32.69777 -116.39550 27502 ft 505 kts 84°
2026-04-24 00:41 32.70128 -116.35379 27987 ft 510 kts 84°
2026-04-24 00:42 32.70482 -116.31171 28477 ft 514 kts 84°
2026-04-24 00:42 32.70837 -116.26934 28951 ft 518 kts 84°
2026-04-24 00:42 32.71193 -116.22660 29462 ft 522 kts 84°
2026-04-24 00:42 32.71549 -116.18357 30010 ft 525 kts 84°
2026-04-24 00:43 32.71902 -116.14087 30404 ft 529 kts 84°
2026-04-24 00:43 32.72261 -116.09726 30773 ft 533 kts 84°
2026-04-24 00:43 32.72620 -116.05352 31327 ft 531 kts 84°
2026-04-24 00:43 32.72974 -116.00996 31964 ft 529 kts 84°
2026-04-24 00:44 32.73326 -115.96665 32537 ft 518 kts 84°
2026-04-24 00:44 32.73663 -115.92499 32810 ft 505 kts 84°
2026-04-24 00:44 32.74330 -115.84198 32789 ft 504 kts 84°
2026-04-24 00:45 32.74665 -115.80007 32788 ft 516 kts 84°
2026-04-24 00:45 32.75006 -115.75715 32838 ft 528 kts 84°
2026-04-24 00:45 32.75353 -115.71328 32897 ft 539 kts 84°
2026-04-24 00:45 32.75706 -115.66845 32901 ft 551 kts 84°
2026-04-24 00:46 32.76065 -115.62267 32898 ft 562 kts 84°
2026-04-24 00:46 32.76430 -115.57604 32878 ft 572 kts 85°
2026-04-24 00:46 32.77164 -115.48116 32871 ft 581 kts 84°
2026-04-24 00:47 32.77899 -115.38553 32877 ft 582 kts 84°
2026-04-24 00:47 32.78627 -115.28963 32887 ft 583 kts 85°
2026-04-24 00:48 32.79348 -115.19361 32882 ft 583 kts 85°
2026-04-24 00:48 32.80062 -115.09759 32884 ft 583 kts 85°
2026-04-24 00:49 32.80765 -115.00221 32887 ft 583 kts 85°
2026-04-24 00:49 32.81466 -114.90584 32883 ft 586 kts 85°
2026-04-24 00:50 32.82162 -114.80939 32884 ft 585 kts 85°
2026-04-24 00:50 32.82848 -114.71294 32883 ft 585 kts 85°
2026-04-24 00:51 32.83529 -114.61652 32884 ft 586 kts 85°
2026-04-24 00:51 32.84202 -114.52000 32886 ft 585 kts 85°
2026-04-24 00:52 32.84867 -114.42353 32886 ft 585 kts 85°
2026-04-24 00:52 32.85524 -114.32710 32883 ft 584 kts 85°
2026-04-24 00:53 32.86173 -114.23088 32882 ft 584 kts 85°
2026-04-24 00:53 32.86814 -114.13460 32881 ft 584 kts 85°
2026-04-24 00:54 32.87449 -114.03824 32882 ft 584 kts 85°
2026-04-24 00:54 32.88075 -113.94194 32880 ft 584 kts 85°
2026-04-24 00:55 32.88695 -113.84561 32877 ft 584 kts 85°
2026-04-24 00:55 32.89307 -113.74923 32860 ft 584 kts 85°
2026-04-24 00:56 32.89915 -113.65230 32865 ft 589 kts 85°
2026-04-24 00:56 32.90517 -113.55513 32861 ft 589 kts 85°
2026-04-24 00:57 32.91112 -113.45789 32862 ft 589 kts 85°
2026-04-24 00:58 32.91988 -113.31255 32869 ft 586 kts 86°
2026-04-24 00:58 32.92560 -113.21574 32868 ft 586 kts 86°
2026-04-24 00:59 32.93126 -113.11901 32870 ft 586 kts 86°
2026-04-24 00:59 32.93685 -113.02207 32886 ft 587 kts 86°
2026-04-24 01:00 32.94236 -112.92516 32896 ft 588 kts 86°
2026-04-24 01:00 32.94781 -112.82808 32899 ft 588 kts 86°
2026-04-24 01:01 32.95318 -112.73113 32909 ft 585 kts 86°
2026-04-24 01:01 32.95542 -112.68275 32622 ft 587 kts 89°
2026-04-24 01:01 32.95284 -112.63439 31825 ft 578 kts 97°
2026-04-24 01:01 32.94845 -112.58735 31090 ft 568 kts 98°
2026-04-24 01:02 32.94427 -112.54093 30354 ft 560 kts 97°
2026-04-24 01:02 32.94029 -112.49514 29577 ft 553 kts 97°
2026-04-24 01:02 32.93628 -112.45057 28879 ft 546 kts 98°
2026-04-24 01:02 32.93211 -112.40577 28160 ft 542 kts 98°
2026-04-24 01:03 32.92797 -112.36082 27449 ft 537 kts 98°
2026-04-24 01:03 32.92400 -112.31685 26727 ft 531 kts 97°
2026-04-24 01:03 32.92006 -112.27352 26059 ft 523 kts 97°
2026-04-24 01:03 32.91607 -112.23070 25382 ft 518 kts 97°
2026-04-24 01:04 32.91210 -112.18828 24711 ft 513 kts 97°
2026-04-24 01:04 32.90821 -112.14630 24045 ft 508 kts 97°
2026-04-24 01:04 32.90436 -112.10466 23370 ft 503 kts 97°
2026-04-24 01:04 32.90057 -112.06422 22686 ft 496 kts 97°
2026-04-24 01:05 32.89671 -112.02365 22039 ft 491 kts 97°
2026-04-24 01:05 32.89006 -111.98408 21384 ft 485 kts 107°
2026-04-24 01:05 32.87848 -111.94677 20755 ft 478 kts 116°
2026-04-24 01:05 32.86261 -111.91255 20134 ft 470 kts 126°
2026-04-24 01:06 32.84297 -111.88198 19516 ft 461 kts 135°
2026-04-24 01:06 32.82021 -111.85559 18912 ft 453 kts 143°
2026-04-24 01:06 32.79517 -111.83355 18325 ft 445 kts 149°
2026-04-24 01:06 32.77801 -111.81951 17902 ft 443 kts 149°
2026-04-24 01:07 32.75289 -111.79866 17344 ft 437 kts 149°
2026-04-24 01:07 32.72805 -111.77794 16785 ft 435 kts 149°
2026-04-24 01:07 32.70335 -111.75756 16207 ft 430 kts 149°
2026-04-24 01:07 32.67913 -111.73769 15644 ft 427 kts 149°
2026-04-24 01:08 32.65486 -111.71767 15083 ft 423 kts 149°
2026-04-24 01:08 32.63084 -111.69779 14525 ft 419 kts 150°
2026-04-24 01:08 32.60700 -111.67816 13983 ft 415 kts 150°
2026-04-24 01:08 32.58338 -111.65875 13405 ft 412 kts 150°
2026-04-24 01:09 32.56020 -111.63910 12841 ft 410 kts 146°
2026-04-24 01:09 32.54012 -111.61491 12293 ft 412 kts 133°
2026-04-24 01:09 32.52304 -111.58781 11775 ft 410 kts 129°
2026-04-24 01:09 32.50615 -111.56083 11276 ft 406 kts 129°
2026-04-24 01:10 32.48372 -111.52549 10961 ft 399 kts 129°
2026-04-24 01:10 32.47266 -111.50804 10969 ft 401 kts 129°
2026-04-24 01:10 32.45608 -111.48171 10968 ft 389 kts 129°
2026-04-24 01:10 32.44037 -111.45671 10965 ft 377 kts 129°
2026-04-24 01:11 32.42452 -111.43175 10965 ft 380 kts 129°
2026-04-24 01:11 32.40865 -111.40676 10961 ft 380 kts 129°
2026-04-24 01:11 32.39289 -111.38181 10961 ft 378 kts 129°
2026-04-24 01:11 32.37709 -111.35682 10952 ft 379 kts 129°
2026-04-24 01:12 32.36127 -111.33184 10957 ft 379 kts 130°
2026-04-24 01:12 32.34407 -111.30844 10937 ft 372 kts 136°
2026-04-24 01:12 32.32645 -111.28744 10409 ft 346 kts 138°
2026-04-24 01:12 32.31002 -111.26862 9847 ft 313 kts 139°
2026-04-24 01:13 32.29436 -111.25095 9252 ft 307 kts 139°
2026-04-24 01:13 32.27903 -111.23379 8608 ft 302 kts 139°
2026-04-24 01:13 32.26385 -111.21685 7992 ft 297 kts 139°
2026-04-24 01:13 32.24890 -111.20015 7379 ft 296 kts 139°
2026-04-24 01:14 32.23393 -111.18339 6975 ft 292 kts 139°
2026-04-24 01:14 32.21955 -111.16731 6973 ft 283 kts 139°
2026-04-24 01:14 32.20527 -111.15133 6983 ft 287 kts 139°
2026-04-24 01:14 32.19059 -111.13499 6984 ft 293 kts 139°
2026-04-24 01:15 32.17570 -111.11846 6985 ft 294 kts 139°
2026-04-24 01:15 32.16088 -111.10207 6986 ft 292 kts 139°
2026-04-24 01:15 32.14597 -111.08565 6985 ft 295 kts 139°
2026-04-24 01:15 32.13105 -111.06918 6980 ft 291 kts 139°
2026-04-24 01:16 32.11628 -111.05299 7004 ft 291 kts 139°
2026-04-24 01:16 32.10140 -111.03687 7008 ft 290 kts 139°
2026-04-24 01:16 32.08655 -111.02081 7000 ft 289 kts 139°
2026-04-24 01:16 32.07174 -111.00471 6933 ft 286 kts 139°
2026-04-24 01:17 32.05710 -110.98862 6248 ft 296 kts 139°
2026-04-24 01:17 32.04217 -110.97221 5996 ft 286 kts 139°
2026-04-24 01:17 32.02787 -110.95631 6001 ft 284 kts 140°
2026-04-24 01:17 32.01353 -110.94016 6001 ft 288 kts 139°
2026-04-24 01:18 32.00157 -110.92136 5933 ft 287 kts 114°
2026-04-24 01:18 31.99995 -110.89861 5906 ft 279 kts 77°
2026-04-24 01:18 32.00741 -110.87777 6000 ft 277 kts 61°
2026-04-24 01:18 32.01681 -110.85800 5993 ft 271 kts 59°
2026-04-24 01:19 32.02894 -110.84114 5141 ft 283 kts 31°
2026-04-24 01:19 32.04718 -110.83567 4937 ft 261 kts 352°
2026-04-24 01:19 32.06286 -110.84367 4799 ft 248 kts 320°
2026-04-24 01:19 32.07438 -110.85776 4614 ft 228 kts 303°
2026-04-24 01:20 32.07863 -110.87397 4846 ft 183 kts 277°
2026-04-24 01:20 32.08047 -110.88737 4645 ft 152 kts 288°
2026-04-24 01:20 32.08367 -110.89877 4088 ft 143 kts 284°
2026-04-24 01:20 32.08869 -110.90809 3398 ft 137 kts 318°
2026-04-24 01:21 32.09562 -110.91546 2899 ft 132 kts 312°
2026-04-24 01:21 32.10192 -110.92279 2644 ft 120 kts 311°
2026-04-24 01:21 32.10667 -110.92843 2606 ft 45 kts 318°
2026-04-24 01:21 32.10800 -110.92897 2604 ft 16 kts 30°
2026-04-24 01:22 32.10829 -110.92864 2604 ft 0 kts 38°
2026-04-24 01:22 32.10830 -110.92863 2604 ft 1 kts 38°
2026-04-24 01:22 32.10835 -110.92858 2604 ft 0 kts 38°
2026-04-24 01:23 32.10836 -110.92858 2604 ft 0 kts 38°
2026-04-24 01:23 32.10836 -110.92857 2604 ft 0 kts 38°
2026-04-24 01:23 32.10837 -110.92857 2604 ft 0 kts 38°
2026-04-24 01:25 32.10846 -110.92851 2603 ft 0 kts 24°
2026-04-24 01:25 32.10857 -110.92845 2603 ft 7 kts 20°
2026-04-24 01:25 32.10926 -110.92892 2602 ft 13 kts 316°
2026-04-24 01:26 32.10984 -110.92959 2603 ft 10 kts 315°
2026-04-24 01:26 32.11033 -110.93015 2603 ft 9 kts 315°
2026-04-24 01:26 32.11079 -110.93070 2602 ft 10 kts 315°
2026-04-24 01:26 32.11132 -110.93132 2603 ft 11 kts 315°
2026-04-24 01:27 32.11182 -110.93191 2604 ft 10 kts 315°
2026-04-24 01:27 32.11229 -110.93247 2606 ft 11 kts 315°
2026-04-24 01:27 32.11293 -110.93323 2606 ft 16 kts 315°
2026-04-24 01:27 32.11380 -110.93427 2607 ft 19 kts 314°
2026-04-24 01:28 32.11487 -110.93550 2605 ft 24 kts 316°
2026-04-24 01:28 32.11621 -110.93708 2603 ft 30 kts 313°
2026-04-24 01:28 32.11768 -110.93878 2600 ft 29 kts 315°
2026-04-24 01:28 32.11903 -110.94037 2602 ft 26 kts 315°
2026-04-24 01:29 32.12025 -110.94181 2604 ft 23 kts 315°
2026-04-24 01:29 32.12144 -110.94322 2604 ft 26 kts 314°
2026-04-24 01:29 32.12258 -110.94455 2604 ft 18 kts 314°
2026-04-24 01:29 32.12347 -110.94559 2601 ft 18 kts 316°
2026-04-24 01:30 32.12431 -110.94658 2600 ft 15 kts 314°
2026-04-24 01:30 32.12490 -110.94723 2600 ft 7 kts 341°
2026-04-24 01:30 32.12525 -110.94708 2599 ft 7 kts 42°
2026-04-24 01:30 32.12570 -110.94658 2595 ft 10 kts 45°
2026-04-24 01:31 32.12621 -110.94597 2594 ft 9 kts 45°
2026-04-24 01:31 32.12631 -110.94582 2598 ft 0 kts 77°
2026-04-24 01:31 32.12632 -110.94578 2598 ft 1 kts 81°
2026-04-24 01:31 32.12629 -110.94571 2598 ft 2 kts 114°
2026-04-24 01:32 32.12613 -110.94549 2591 ft 6 kts 130°
2026-04-24 01:32 32.12624 -110.94502 2593 ft 8 kts 41°
2026-04-24 01:32 32.12638 -110.94486 2593 ft 0 kts 44°